User: anonymous   Login
Location: Newsoms
(36.6240°N, 77.1250°W)
Time: 06:04:33
(UTC-05:00)
Language:

BREEZE-M DEB (TANK) - Orbit

View from above orbital plane
View from above orbital plane
View from above satellite
View from above satellite

Ground track
Ground track

The orbit data is extracted from the following two-line orbital elements,

1 29649U 06056B   18052.09461468 +.00003057 +00000-0 +39135-3 0  9990
2 29649 049.5333 051.2515 5392495 317.2090 011.5161 05.00237177200219
Epoch (UTC): 21 February 2018 02:16:14
Eccentricity: 0.5392495
inclination: 49.5333°
perigee height: 276 km
apogee height: 15851 km
right ascension of ascending node: 51.2515°
argument of perigee: 317.2090°
revolutions per day: 5.00237177
mean anomaly at epoch: 11.5161°
orbit number at epoch: 20021

The dashed part of the orbit path shows where the satellite is in the earth's shadow,  

DLR